Date,TemperatureHighF,TemperatureAvgF,TemperatureLowF,DewpointHighF,DewpointAvgF,DewpointLowF,HumidityHigh,HumidityAvg,HumidityLow,PressureMaxIn,PressureMinIn,WindSpeedMaxMPH,WindSpeedAvgMPH,GustSpeedMaxMPH,PrecipitationSumIn
2013-1-1,41.9,38.9,34.7,41.6,38.2,32.9,99,97,93,29.88,29.63,8,4,17,0.01
2013-1-2,40.1,33.5,29.7,33.6,31.0,28.0,99,91,76,29.94,29.84,7,2,12,0.00
2013-1-3,49.6,36.6,26.2,34.8,30.0,25.6,99,80,46,30.06,29.91,6,2,12,0.00
2013-1-4,49.3,41.4,34.2,33.9,31.8,28.9,88,70,49,30.12,29.95,3,0,6,0.00
2013-1-5,54.1,43.3,37.4,41.4,37.3,32.6,95,81,59,29.96,29.80,3,1,10,0.00
2013-1-6,55.2,41.4,28.0,36.5,27.9,19.6,99,66,28,30.00,29.87,7,2,15,0.00
2013-1-7,55.9,42.4,30.2,36.7,28.8,21.1,76,60,39,29.94,29.70,4,1,14,0.00
2013-1-8,47.5,45.7,43.3,47.2,42.0,32.9,99,88,67,29.72,29.57,7,2,14,0.93
2013-1-9,55.8,52.7,47.5,55.5,52.5,47.2,99,99,99,29.76,29.59,16,6,27,1.20
2013-1-10,61.5,54.7,47.3,58.2,51.6,45.8,99,90,61,29.63,29.48,7,2,18,0.09
2013-1-11,71.6,57.9,46.2,63.5,50.7,45.4,99,80,43,29.56,29.36,6,2,17,0.00
2013-1-12,65.3,52.2,34.5,64.7,51.7,33.2,99,98,91,29.58,29.27,13,5,23,0.39
2013-1-13,41.5,33.7,27.5,33.8,26.8,20.6,97,77,55,29.89,29.53,12,7,21,0.00
2013-1-14,44.1,32.5,24.6,27.5,23.1,20.0,85,70,50,29.96,29.82,10,5,17,0.00
2013-1-15,36.1,32.0,27.0,30.9,27.1,22.7,99,82,73,29.86,29.75,8,4,14,0.05
2013-1-16,49.3,35.1,23.2,26.4,22.3,19.3,87,63,38,29.88,29.75,7,2,13,0.00
2013-1-17,58.5,44.1,32.5,37.9,30.2,23.4,82,60,37,30.10,29.83,8,3,16,0.00
2013-1-18,63.0,46.8,32.2,38.5,33.2,27.0,85,63,34,30.11,29.86,4,1,12,0.00
2013-1-19,66.2,51.3,39.6,46.6,41.9,35.5,95,73,47,29.87,29.72,4,2,11,0.00
2013-1-20,70.9,52.9,37.9,52.3,43.1,37.7,99,75,37,29.83,29.66,4,1,9,0.00
2013-1-21,56.5,44.3,34.7,44.2,31.0,24.2,98,62,39,29.91,29.72,8,4,17,0.00
2013-1-22,64.8,47.2,32.5,45.8,36.3,23.8,89,68,46,29.91,29.78,4,1,10,0.00
2013-1-23,75.6,57.9,42.6,55.8,50.3,40.5,99,79,46,29.87,29.71,5,1,16,0.00
2013-1-24,74.7,59.2,52.5,63.6,56.1,52.2,99,91,62,29.79,29.63,7,2,14,0.00
2013-1-25,54.3,46.7,41.5,54.0,44.4,38.3,99,92,72,29.82,29.62,7,4,14,0.00
2013-1-26,48.9,45.8,42.6,48.7,45.4,41.4,99,99,92,29.83,29.70,4,2,10,0.01
2013-1-27,72.9,59.4,46.2,67.2,56.8,46.0,99,92,70,29.71,29.51,5,2,13,0.01
2013-1-28,75.9,70.6,66.2,68.7,66.0,63.0,99,86,72,29.62,29.42,6,4,15,0.00
2013-1-29,76.6,64.5,52.5,69.5,60.8,33.9,99,89,50,29.43,29.04,11,4,27,0.47
2013-1-30,52.7,45.0,36.1,41.6,30.4,20.1,88,59,33,29.73,29.24,15,6,27,0.00
2013-1-31,68.9,48.4,33.1,31.7,20.8,-0.7,71,46,10,29.93,29.66,13,3,24,0.00